Flag for Germany Weather past 2 weeks in Pirmasens, Rhineland-Palatinate, Germany

Now
58 °F

Passing clouds.


Feels Like: 58 °F
Forecast: 49 / 64 °F
Wind: No wind

Location: Ramstein

Current Time: Sep 2, 2015 at 12:29:43 AM

Latest Report: Sep 1, 2015 at 10:58 PM


Visibility: N/A

Pressure: 30.05 "Hg

Humidity: 94%

Dew point: 56 °F

Location of PirmasensLocation

Historic Weather in Pirmasens — Graph

°F

Pirmasens temperature yesterday

Maximum temperature yesterday: 73 °F (at 12:04 PM)
Minimum temperature yesterday: 54 °F (at 9:58 PM)
Average temperature yesterday: 65 °F

Past Weeks' High & Low Weather Summary

 TemperatureHumidityPressure
High92 °F (Aug 30, 4:58 PM)100% (Aug 19, 3:02 AM)30.27 "Hg (Aug 19, 3:02 AM)
Low43 °F (Aug 19, 6:58 AM)21% (Aug 31, 2:58 PM)29.66 "Hg (Aug 24, 12:58 PM)
Average66 °F69%30.00 "Hg
* Reported Aug 17 10:58 PM — Sep 1 10:58 PM, Pirmasens, Weather by CustomWeather, © 2015

Note: Actual official high and low records may vary slightly from our data, if they occured in-between our weather recording intervals... More about our weather records

Advertising

Pirmasens weather history for previous 24 hours

 ConditionsComfort  
Time TempWeatherWind HumidityBarometerVisibility
10:58 PM
Tue, Sep 1
58 °FPassing clouds.No wind94%30.05 "HgN/A
9:58 PM54 °FPassing clouds.No wind99%30.05 "HgN/A
8:58 PM57 °FSunny.No wind91%30.03 "HgN/A
7:58 PM63 °FSunny.7 mph66%30.00 "HgN/A
6:58 PM65 °FScattered clouds.9 mph68%29.98 "HgN/A
5:58 PM64 °FPartly sunny.6 mph75%29.96 "HgN/A
5:02 PM63 °FBroken clouds.7 mph83%29.95 "HgN/A
3:58 PM64 °FLight rain. Partly sunny.8 mph88%29.92 "HgN/A
2:58 PM64 °FLight rain. Partly sunny.No wind83%29.90 "HgN/A
1:58 PM63 °FDrizzle. Overcast.8 mph88%29.87 "HgN/A
12:58 PM64 °FLight rain. Partly sunny.10 mph88%29.85 "HgN/A
12:04 PM73 °FMostly cloudy.21 mph65%29.77 "HgN/A
10:58 AM73 °FPassing clouds.7 mph60%29.76 "HgN/A
10:04 AM70 °FLight rain. Passing clouds.No wind83%29.79 "HgN/A
8:58 AM68 °FScattered clouds.2 mph88%29.76 "HgN/A
7:58 AM65 °FScattered clouds.No wind100%29.76 "HgN/A
6:58 AM63 °FPassing clouds.2 mph99%29.78 "HgN/A
5:00 AM66 °FPassing clouds.No wind88%29.83 "HgN/A
4:58 AM65 °FLight rain. Passing clouds.No wind92%29.80 "HgN/A
3:58 AM66 °FPassing clouds.No wind80%29.81 "HgN/A
2:58 AM68 °FPassing clouds.No wind75%29.82 "HgN/A
1:58 AM70 °FPassing clouds.No wind68%29.82 "HgN/A
12:58 AM68 °FPassing clouds.No wind73%29.82 "HgN/A
Weather by CustomWeather, © 2015

See weather overviewHow to use our weather pages